Location: Proctor
(47.8934°N, 114.3048°W)
Time: 01:37:18
(UTC+00:00)

Tiros 1 despin weight - Pass Details

Date: 25 June 2024
Orbit: 576 x 620 km, 48.2° (Epoch: 24 July)

Event Time Altitude Azimuth Distance (km) Brightness Sun altitude
Rises 18:09:33 0° 214° (SW) 2,869 ? 59.6°
Reaches altitude 10° 18:12:06 10° 203° (SSW) 1,972 ? 59.9°
Maximum altitude 18:15:55 27° 145° (SE) 1,189 ? 60.3°
Drops below altitude 10° 18:19:47 10° 87° (E) 1,989 ? 60.7°
Sets 18:22:21 0° 76° (ENE) 2,898 ? 61.0°
